Location: Bogis-Bossey
(46.3500°N, 6.1667°E)
Time: 16:47:46
(UTC+00:00)

Cosmos 1500 Rocket - Pass Details

Date: 17 August 2022
Orbit: 603 x 630 km, 82.5° (Epoch: 01 October)

Event Time Altitude Azimuth Distance (km) Brightness Sun altitude
Exits shadow 20:16:57 26° 122° (ESE) 1,212 4.4 -15.1°
Maximum altitude 20:18:15 31° 90° (E) 1,078 4.4 -15.3°
Drops below altitude 10° 20:22:06 10° 28° (NNE) 1,975 6.3 -15.8°
Sets 20:24:29 0° 19° (NNE) 2,880 7.3 -16.1°
